Theta_e
310 308 308 310 311 312 313 313 314 313 314 316 315 318 328 330 321 314 311 311 312 311 312 316 315 312 311 310 310 311 312 311 312 313 314 313 312 313 312 311 313 312 311 313 314 315 315 314 315 315 314 313 312 312 313 313 314 319 319 317 320 320 319 322 324 325 324 318 313 314 313 310 312 311 309 310 309 310 316 320 322 327 323 323 333 332 324
310 308 308 310 311 312 313 314 314 313 314 315 316 324 337 333 325 322 315 309 311 315 315 315 313 311 311 310 310 311 310 312 313 313 315 314 313 315 313 312 314 312 312 314 313 313 316 315 314 315 315 315 315 315 314 314 316 318 319 319 318 314 316 321 327 330 328 322 319 318 315 313 313 311 310 310 310 310 314 317 326 331 322 320 331 333 326
310 308 308 310 312 312 313 314 314 314 314 315 317 323 329 328 324 325 319 310 311 316 316 317 315 314 314 311 310 311 310 311 312 313 314 314 314 316 314 312 314 314 313 313 312 313 316 315 315 316 316 315 317 317 314 314 316 316 317 321 321 317 316 321 330 330 322 321 324 321 317 315 313 311 311 311 310 311 315 319 327 329 321 322 331 330 323
311 308 308 310 312 312 313 314 314 314 314 316 316 315 320 325 323 323 322 315 312 313 314 316 317 316 319 316 311 312 312 310 311 313 313 313 314 315 314 314 316 315 315 315 314 314 315 316 318 318 316 315 316 317 315 314 316 316 315 320 324 322 316 317 326 327 319 319 321 319 317 315 312 312 313 313 312 312 317 323 325 322 319 325 332 325 315
310 308 308 310 312 313 313 314 314 314 314 315 316 315 320 325 320 319 322 319 317 316 313 315 318 316 318 316 311 312 313 312 312 312 312 313 315 315 314 316 317 316 316 317 316 316 317 318 319 316 315 316 317 317 315 314 316 315 314 318 325 325 318 315 319 318 314 315 316 314 315 313 312 313 314 314 314 312 314 318 320 319 318 326 338 329 314
311 308 308 310 313 313 313 313 314 315 314 313 318 320 320 320 318 316 317 316 317 316 313 314 317 317 320 318 313 313 314 313 313 312 312 315 316 315 315 316 317 316 318 319 317 318 319 318 316 315 314 317 320 318 314 313 316 316 313 317 323 323 317 314 315 315 314 314 314 314 314 312 312 315 314 315 316 313 312 314 317 320 318 321 331 325 316
311 309 308 310 313 313 313 314 314 315 315 313 316 320 320 322 321 318 317 316 316 316 316 317 315 317 324 322 315 313 314 313 312 312 314 315 315 317 316 314 315 319 324 325 319 318 319 316 314 315 314 314 316 316 315 314 315 316 314 314 318 321 319 315 315 315 314 314 314 314 314 313 314 315 314 315 315 313 312 312 314 316 316 318 320 317 318
311 308 308 310 313 314 313 313 314 315 315 314 316 317 320 323 320 320 323 323 319 321 323 322 318 317 322 320 315 313 313 312 311 312 313 312 312 316 316 314 315 319 325 326 318 317 320 316 314 315 314 315 316 315 315 314 315 318 316 313 316 318 317 318 320 317 314 314 315 314 314 315 314 315 315 315 314 315 314 312 313 314 315 316 314 315 324
311 309 308 309 313 315 313 313 313 315 315 315 317 316 316 316 314 318 328 326 319 320 322 321 320 319 319 318 315 315 315 313 311 311 310 311 312 315 316 316 317 318 321 320 314 317 323 320 316 318 316 316 316 315 314 312 313 317 315 314 318 319 317 319 323 320 315 314 314 315 316 315 313 314 315 314 314 315 315 318 322 322 321 320 318 322 332
312 309 308 309 312 314 314 313 312 315 314 314 316 316 315 315 313 315 323 322 316 319 321 320 319 316 316 317 315 315 315 314 313 311 310 312 312 314 318 319 317 316 317 315 311 315 321 319 315 316 316 315 315 315 315 313 312 315 315 313 317 322 320 318 319 321 320 316 316 317 314 312 313 315 313 313 315 316 319 326 330 327 326 327 326 328 330
312 310 308 308 311 313 315 314 312 314 315 314 315 315 313 316 317 320 328 324 316 318 321 321 320 317 315 317 315 315 316 317 316 314 314 315 313 313 318 322 320 316 313 311 309 311 315 315 314 315 315 315 314 314 315 316 315 316 318 316 317 321 323 319 318 319 320 319 320 318 311 311 315 314 310 311 316 320 326 331 329 326 326 328 328 327 325
313 312 309 308 310 312 314 314 313 314 314 314 315 315 313 314 316 325 336 326 316 319 321 317 317 316 315 316 316 316 317 317 317 317 316 315 315 314 317 321 321 316 311 311 315 316 314 314 318 318 316 316 317 315 315 316 315 315 318 320 320 321 322 320 319 318 318 321 322 317 313 313 314 311 311 315 319 322 327 329 324 322 325 325 325 325 324
313 312 310 308 309 311 313 314 314 313 313 314 314 314 315 313 313 324 336 328 318 321 320 315 316 317 316 317 317 315 315 316 318 319 317 316 317 317 315 316 316 313 311 316 323 323 317 317 321 320 318 321 322 319 317 317 316 316 318 319 321 322 322 320 319 318 318 319 318 314 313 314 315 317 319 321 323 323 325 327 324 321 321 322 323 324 324
313 313 311 309 308 310 312 313 314 313 313 313 313 314 315 314 315 322 329 326 321 318 316 316 318 318 317 318 319 318 319 320 319 318 316 315 317 316 315 316 313 310 311 318 324 322 318 320 324 321 320 323 322 317 317 316 315 316 317 318 320 321 321 319 317 317 318 318 317 316 315 315 319 324 323 320 320 321 321 325 325 320 318 320 321 321 322
313 313 312 310 309 309 310 311 313 313 313 313 313 314 314 314 317 318 318 324 326 319 317 319 317 316 317 319 319 319 320 321 320 318 318 319 318 315 314 314 311 309 312 318 323 322 319 322 324 322 321 321 317 315 317 316 314 315 316 318 318 318 318 318 316 317 318 317 317 319 318 318 319 321 320 318 317 317 318 322 324 319 316 317 319 320 320
313 314 313 311 310 309 308 311 313 313 314 313 313 314 313 313 316 314 314 323 327 317 315 318 316 316 318 316 315 316 319 320 320 321 324 324 321 318 316 312 311 313 319 323 322 321 322 322 320 318 320 319 315 314 315 316 317 315 314 318 318 317 318 318 316 318 318 315 317 318 318 319 320 320 319 317 316 316 317 319 322 319 314 315 318 319 318
313 314 314 313 311 310 309 310 312 313 314 313 313 314 314 313 315 314 315 324 330 324 321 319 315 318 320 315 313 316 319 320 318 318 320 320 318 318 319 317 315 316 321 324 322 320 322 319 315 317 318 314 313 314 314 316 320 318 316 320 321 320 321 319 316 318 318 316 317 317 316 318 320 320 320 317 315 316 317 319 321 318 314 315 317 317 316
313 314 314 314 313 311 310 309 310 311 313 314 314 315 314 314 314 313 315 325 331 329 325 318 314 317 319 318 318 317 315 317 318 317 318 319 318 318 320 320 317 314 318 322 323 322 321 317 315 319 317 310 310 314 313 316 321 319 315 316 317 317 317 317 316 317 317 317 318 317 317 319 320 320 320 318 315 315 316 318 318 315 314 316 316 314 314
313 313 314 314 314 313 311 310 309 310 312 314 315 315 314 315 314 312 315 321 323 322 320 315 313 317 316 316 319 317 312 316 322 321 319 319 317 316 317 317 315 315 319 322 322 320 319 316 314 316 316 312 312 314 313 314 318 317 314 314 314 314 314 314 316 316 316 317 318 317 318 319 320 320 319 317 316 317 316 315 314 314 315 316 314 313 313
312 313 313 314 314 314 313 312 311 310 310 313 315 316 314 315 315 313 315 318 320 323 322 314 313 317 315 315 320 320 315 318 322 322 322 321 318 318 319 319 319 318 318 320 318 316 317 319 315 313 316 317 314 313 314 315 316 317 318 318 317 315 315 316 315 314 315 316 315 316 318 317 318 319 317 316 319 319 314 313 314 314 314 314 313 312 311
311 313 313 313 314 314 314 314 313 312 311 311 313 314 314 314 314 313 314 315 317 321 320 313 311 314 314 314 317 317 317 319 319 319 323 322 318 319 322 324 323 322 320 320 319 316 317 320 316 313 315 315 313 313 315 318 318 314 313 316 316 314 317 319 316 314 316 317 314 315 318 318 317 318 318 320 321 317 314 315 315 313 312 312 312 311 310
310 311 312 313 313 313 314 314 314 314 313 312 311 311 312 313 312 311 313 314 315 318 317 313 313 313 313 314 314 313 314 316 314 315 319 319 315 317 321 325 324 321 319 320 320 317 317 318 316 316 315 314 315 314 311 314 319 315 311 314 315 314 316 318 317 316 317 318 316 316 318 319 317 317 319 319 318 315 314 314 313 311 312 311 310 310 309
310 311 311 313 313 313 313 313 314 314 314 314 313 312 312 312 311 311 314 314 314 316 315 313 314 315 314 314 315 314 315 315 314 314 316 316 316 316 318 321 320 318 317 319 321 322 321 317 315 317 317 315 317 317 312 312 316 317 315 315 314 313 314 314 315 316 314 315 315 314 314 315 314 314 315 314 314 314 313 311 311 311 311 310 309 309 309
310 310 311 312 312 313 313 312 313 314 314 314 314 313 313 313 312 313 315 313 313 318 318 315 316 318 317 315 315 315 315 315 315 315 314 315 316 318 318 317 316 318 321 319 317 319 320 316 313 314 317 315 316 318 317 315 314 315 316 316 314 313 313 313 315 315 313 314 317 314 313 313 313 313 313 312 312 313 312 311 311 310 309 309 308 308 308
310 310 310 311 311 312 313 313 312 313 312 313 313 313 312 313 312 314 315 315 315 318 320 322 322 317 314 315 314 314 314 314 314 315 315 314 315 316 318 316 313 316 318 315 313 316 319 318 315 315 317 316 315 316 316 316 315 313 314 317 316 313 312 313 316 315 313 315 316 314 313 313 313 312 312 311 311 312 311 310 310 309 308 307 307 307 307
310 310 310 311 311 311 312 312 312 312 312 313 313 312 312 312 313 313 313 315 315 314 317 324 325 316 313 315 315 313 314 314 314 314 315 315 315 314 314 314 314 314 313 312 315 319 321 321 318 318 318 316 314 315 316 316 314 312 314 316 315 312 312 314 314 314 313 313 312 311 310 311 311 311 310 309 309 312 311 310 309 308 308 307 306 306 307
309 310 310 311 311 311 311 310 311 312 312 312 312 312 311 312 312 312 312 314 317 318 319 322 320 315 313 315 315 313 314 314 314 315 314 315 316 314 312 313 317 318 315 315 318 319 320 320 318 317 318 315 313 314 316 314 313 315 316 315 311 311 314 314 312 313 314 313 313 312 312 314 315 315 313 311 309 310 311 310 309 309 308 307 307 306 305
309 310 310 311 311 311 310 310 310 310 311 311 311 310 310 311 311 312 312 312 316 318 318 318 317 316 316 316 314 314 315 315 314 315 315 314 315 314 311 312 317 319 318 317 318 317 318 319 317 316 317 315 314 314 314 313 314 316 316 313 311 313 315 314 313 316 316 313 314 314 313 314 315 314 314 312 309 309 311 311 310 310 308 307 307 307 306
309 310 310 310 311 310 310 310 310 310 311 311 310 309 311 313 313 312 311 311 312 314 314 315 317 318 319 317 315 314 315 315 315 315 315 314 314 312 311 312 315 317 317 318 318 319 320 319 317 317 317 316 316 317 315 315 316 316 315 313 312 312 313 312 313 315 314 313 315 314 313 315 315 314 314 312 308 309 311 310 309 309 307 306 307 307 307
309 310 310 310 310 310 310 310 310 310 310 309 309 312 317 318 315 314 312 311 311 314 315 316 317 317 317 317 317 316 315 315 315 316 315 313 312 311 311 312 314 316 317 318 318 318 320 319 317 317 316 314 315 317 316 316 317 317 315 315 313 311 311 312 312 312 314 315 316 313 314 316 314 311 311 308 305 307 310 309 308 308 307 307 307 307 306
309 310 310 310 310 309 309 310 310 310 310 308 309 317 324 321 316 314 313 311 311 313 316 317 317 317 318 318 316 316 316 315 315 316 315 314 313 313 312 313 315 316 317 318 318 317 319 320 318 317 316 314 316 317 316 316 318 318 317 316 314 311 311 311 310 310 312 315 315 312 312 313 310 309 312 312 307 306 308 309 308 308 309 309 308 306 306
309 310 310 309 309 308 308 309 309 309 309 308 309 313 317 316 314 313 312 310 311 313 316 318 319 319 320 320 316 315 315 315 316 317 317 317 317 316 315 315 316 316 316 317 318 319 319 319 319 319 318 317 317 318 317 317 318 317 317 317 315 312 311 311 311 310 310 312 313 312 312 312 311 312 314 313 307 305 306 307 306 307 307 307 306 305 304
310 310 309 309 308 308 308 308 308 308 308 308 309 311 311 311 312 313 311 311 313 314 316 319 320 320 319 319 318 317 316 318 320 320 319 318 316 317 318 317 315 315 316 316 317 318 319 320 319 319 318 317 316 317 318 317 316 316 316 316 315 313 311 311 310 310 310 310 311 312 314 315 314 311 309 307 306 305 305 306 306 306 305 305 305 304 304
310 309 309 308 308 308 308 307 308 308 308 308 311 314 313 311 312 312 312 313 315 316 317 318 320 320 319 318 320 319 317 318 322 322 320 317 315 316 319 318 315 315 316 317 317 318 318 319 319 318 317 316 315 316 317 317 315 315 315 315 314 312 311 310 310 310 310 309 310 311 311 310 309 308 308 308 308 306 305 305 306 306 306 305 305 304 304
309 309 309 309 308 308 308 308 308 308 308 309 312 316 316 314 313 313 314 314 316 319 320 318 319 320 319 320 322 321 316 317 321 321 319 318 316 317 319 318 316 316 317 316 316 318 318 318 319 318 318 317 317 317 317 317 316 316 316 315 313 312 312 312 312 311 309 308 309 310 309 308 309 311 312 311 309 307 307 306 305 305 306 306 305 304 303
309 309 309 309 309 309 309 309 309 310 311 313 314 316 317 315 313 313 314 314 316 318 319 319 319 320 320 320 321 319 316 319 321 320 318 318 317 317 318 318 317 317 316 315 316 317 317 317 318 318 318 318 319 318 318 317 317 317 316 315 313 312 313 313 312 311 309 309 309 310 309 310 311 312 311 310 308 307 307 308 307 306 307 306 304 304 304
309 309 309 309 309 310 311 311 311 313 315 316 315 316 316 315 313 313 313 313 314 316 317 318 320 319 319 321 321 318 318 320 321 320 319 319 318 318 317 317 318 318 317 318 319 318 316 316 317 317 318 318 319 319 318 317 317 317 316 315 313 312 313 312 311 310 310 310 310 311 310 310 311 310 309 309 309 308 309 309 308 307 306 305 305 304 304
308 309 308 308 311 316 318 317 315 316 317 315 315 316 317 316 315 315 314 314 316 316 316 317 319 318 318 319 319 318 318 319 321 321 320 319 319 318 317 317 318 318 318 319 318 317 316 316 316 315 316 317 318 317 316 315 315 316 316 314 313 313 312 311 309 310 312 313 313 313 312 312 313 312 309 309 310 309 308 307 305 304 304 304 304 305 305
308 309 309 309 313 318 319 317 316 317 316 315 315 317 318 317 318 319 317 316 317 318 318 317 318 318 318 319 319 317 316 318 320 320 319 318 318 318 318 318 317 316 318 319 316 315 316 318 316 315 316 317 316 315 313 313 313 314 314 314 313 312 311 310 309 311 313 315 315 314 313 313 315 315 313 312 312 309 306 303 303 303 304 304 304 305 306
308 309 310 312 314 316 317 316 315 316 316 316 316 317 318 318 319 320 319 318 319 319 318 318 318 317 317 318 319 318 316 317 319 320 320 318 316 315 317 318 316 316 319 319 316 315 317 318 316 316 317 317 314 312 311 311 312 313 313 312 311 309 308 308 309 309 309 310 310 308 306 307 309 311 312 312 312 311 308 305 304 304 304 304 305 306 307
308 310 312 314 315 316 316 316 316 316 317 319 319 319 320 321 320 318 319 321 322 320 318 318 319 320 319 318 318 319 318 317 318 318 318 317 316 316 318 318 316 316 319 318 315 316 318 318 316 317 318 316 313 312 311 311 311 313 313 311 309 308 307 307 308 307 308 310 310 307 305 305 306 306 307 307 307 307 307 305 304 304 304 305 306 306 306
310 311 312 313 313 314 315 317 317 317 319 321 321 321 319 319 320 320 320 322 324 322 319 318 321 323 321 319 318 319 318 317 316 316 317 317 316 316 317 317 316 316 318 316 314 315 317 316 316 317 316 313 312 311 311 311 311 313 312 311 309 308 307 308 310 309 307 308 309 307 306 306 306 306 306 306 306 305 305 305 305 305 305 305 306 306 306
311 311 312 313 313 314 316 318 318 318 319 321 323 322 322 322 323 323 322 322 323 323 322 320 320 321 320 319 318 317 316 315 316 317 318 318 316 315 317 318 317 316 316 315 314 315 316 316 317 316 314 312 311 311 311 311 312 313 312 310 308 307 306 307 309 309 307 306 307 307 307 307 307 307 307 307 306 306 306 305 305 305 305 305 306 306 305
311 310 312 316 317 317 318 320 319 319 323 324 323 323 324 325 325 324 323 323 325 325 324 322 320 321 321 320 319 318 317 316 315 316 317 316 315 316 318 318 317 315 315 315 315 314 314 315 316 314 311 310 310 311 311 311 312 313 312 310 308 307 306 306 307 308 307 307 307 307 306 306 307 307 307 306 306 306 306 305 304 304 305 305 306 304 303
314 315 317 322 321 318 318 320 320 321 325 326 323 323 325 326 325 325 324 323 323 324 324 321 319 320 322 320 318 319 320 318 317 316 316 315 316 317 317 318 317 315 314 314 315 314 313 312 312 311 310 310 310 310 311 311 312 312 312 311 310 308 307 307 308 308 307 306 306 306 306 306 307 307 307 306 306 306 305 304 304 304 304 305 305 304 302
315 317 321 327 326 320 317 320 322 323 325 325 326 327 328 326 325 324 324 323 323 324 323 321 319 321 323 322 318 318 319 319 317 316 316 316 318 317 315 314 315 315 315 316 316 316 314 312 310 310 309 309 309 309 310 311 311 312 312 312 312 311 308 307 306 306 306 306 306 306 306 306 307 307 307 306 305 305 304 304 304 304 304 304 304 302 301
316 315 318 325 327 321 318 322 325 325 324 325 326 327 326 323 322 321 321 322 321 320 320 320 319 319 320 320 319 318 318 318 318 317 316 317 318 317 315 315 315 314 314 315 315 313 311 310 310 309 309 308 308 309 309 310 311 311 311 312 312 311 309 307 306 305 305 305 305 306 306 307 307 307 306 306 305 304 304 304 303 303 303 303 302 301 301
319 317 318 326 329 325 322 325 326 324 323 324 325 324 321 320 321 322 322 321 320 320 321 322 322 321 320 319 318 318 317 317 317 316 316 317 317 317 317 317 315 311 310 312 312 310 309 309 309 309 309 308 308 308 309 309 310 310 310 310 310 310 309 307 306 305 305 305 305 306 307 307 307 307 306 305 304 304 304 303 302 302 302 302 301 300 300
315 314 317 322 324 324 324 324 323 323 324 324 323 323 321 321 323 324 322 321 322 322 321 320 322 322 320 318 317 317 316 316 316 317 317 316 316 315 314 314 314 312 310 310 310 310 309 309 308 308 308 308 307 307 307 308 309 310 310 310 309 308 307 305 304 305 305 305 306 306 307 307 307 307 306 305 304 304 303 302 302 301 301 301 301 300 300
313 315 319 320 320 322 324 322 321 325 326 324 323 324 324 324 325 324 321 320 324 323 319 318 319 320 317 316 317 317 316 315 317 318 317 315 314 312 311 311 311 311 310 309 309 309 309 308 307 307 307 306 306 306 307 307 309 310 311 311 309 308 306 305 305 305 305 305 306 307 307 307 307 307 305 304 304 303 303 302 301 301 301 301 301 301 301
314 316 320 320 319 322 323 321 321 324 324 322 324 325 324 324 325 323 318 319 324 325 321 318 320 321 320 319 318 317 315 314 315 316 315 313 312 311 310 309 309 309 309 308 307 307 306 306 306 306 305 305 305 305 306 307 308 310 311 310 309 307 306 306 305 305 305 306 307 307 306 306 307 307 305 304 304 303 303 302 301 301 301 301 301 301 301
317 319 322 321 319 319 320 320 321 322 322 322 324 324 323 325 326 322 318 318 321 321 319 319 321 321 319 317 315 314 314 314 312 310 310 311 311 310 310 309 308 307 306 305 304 303 303 303 303 303 303 304 304 304 305 307 308 309 310 309 308 307 306 306 306 306 306 306 306 307 307 307 307 306 304 304 303 303 303 303 302 301 301 301 301 301 301
Wind_Speed
25 26 26 27 30 32 33 31 27 28 26 18 14 9 4 3 1 8 20 12 10 12 5 3 5 3 1 1 2 4 3 3 5 5 6 5 4 5 5 3 4 4 3 3 3 3 3 3 3 2 2 2 2 6 8 6 3 3 2 2 2 1 2 3 2 3 4 4 3 4 3 4 5 5 5 3 3 2 1 3 2 2 3 2 2 4 3
25 25 25 26 29 31 32 30 25 25 25 20 12 4 3 2 2 5 19 15 11 8 3 2 5 3 3 4 4 5 4 4 5 5 5 4 3 4 4 3 4 3 3 3 3 2 3 3 3 2 2 2 4 6 8 7 5 3 2 2 1 1 2 3 3 3 4 5 4 4 4 4 3 3 5 5 5 5 2 1 2 2 1 1 3 4 3
24 24 25 26 28 30 31 29 24 22 22 17 9 2 3 3 0 3 13 19 13 5 3 4 5 3 4 5 4 4 3 3 4 5 5 4 3 4 2 2 3 3 4 5 5 5 4 2 2 2 2 3 4 6 9 8 4 5 7 5 1 2 2 3 4 3 1 1 1 2 3 3 2 2 5 6 7 7 3 2 3 2 0 0 3 2 4
23 24 24 25 28 30 30 28 23 20 20 13 7 4 2 3 3 2 7 11 8 3 1 4 4 3 3 4 4 4 3 2 3 4 4 4 4 4 2 2 3 5 6 6 6 8 6 4 2 2 3 3 3 4 7 8 8 10 13 10 3 3 2 3 5 5 4 5 4 3 2 3 2 3 6 6 6 5 3 3 2 1 1 2 2 2 3
22 23 23 24 27 29 29 28 22 18 18 10 5 5 3 3 2 1 2 4 4 4 5 4 3 2 3 2 2 3 3 2 4 4 3 2 4 4 3 4 4 4 5 5 4 5 6 5 4 2 2 2 3 4 4 7 11 13 12 8 3 4 3 4 6 4 2 4 3 4 3 1 3 4 5 5 6 5 3 2 3 3 3 3 5 1 4
21 22 22 23 26 28 29 28 22 17 16 10 3 3 4 3 2 1 1 1 1 2 3 4 5 5 3 3 2 3 4 3 3 2 2 3 3 3 3 6 5 4 4 4 2 2 4 5 3 1 2 2 4 5 4 5 9 10 7 6 4 5 2 2 4 2 2 1 3 4 2 1 2 3 4 4 5 4 1 3 5 5 4 4 6 1 3
21 21 21 22 24 27 28 28 23 16 12 10 9 5 2 2 2 1 1 3 2 1 2 3 6 7 5 3 3 3 4 4 2 1 2 4 4 3 4 3 4 3 3 5 4 2 2 2 2 1 1 3 3 3 3 3 6 6 5 4 3 4 1 2 3 2 3 4 3 3 3 3 3 4 5 5 5 5 5 5 5 5 6 7 7 4 2
19 20 20 20 22 25 27 28 25 17 11 12 13 7 3 2 2 1 3 4 1 1 3 3 5 5 4 3 3 2 3 3 3 2 3 1 3 3 5 2 1 3 4 6 4 4 6 5 2 3 2 2 1 0 1 1 4 6 3 3 3 3 1 2 3 3 3 4 4 3 3 2 3 5 6 6 5 5 4 4 3 3 5 5 5 4 1
18 18 18 18 20 23 25 27 27 21 13 12 10 5 4 3 2 2 4 3 4 4 3 3 4 4 3 2 2 3 3 2 1 2 3 2 1 1 5 5 2 3 5 6 3 4 7 7 6 7 5 3 3 1 1 3 1 4 2 2 3 3 1 2 4 4 2 2 3 5 4 2 3 4 5 5 3 2 3 3 2 1 2 2 1 2 2
17 17 17 16 17 21 23 25 27 24 18 15 8 3 4 4 2 2 4 2 3 3 2 3 4 1 2 1 1 2 2 3 1 2 3 4 3 1 6 6 3 4 5 4 0 4 7 6 6 5 4 3 3 2 2 4 3 1 2 1 2 2 3 1 3 2 3 3 3 4 3 4 2 2 2 3 3 3 4 2 4 3 1 1 2 2 2
15 16 16 15 15 17 20 22 24 24 23 20 11 4 5 2 2 2 4 3 3 2 2 3 3 2 1 1 2 2 3 5 4 3 1 4 4 2 4 6 4 2 0 2 2 3 6 4 3 4 5 5 5 5 6 6 4 1 3 2 1 2 4 2 2 2 3 6 5 4 3 2 3 3 2 3 4 4 2 1 3 4 2 3 3 0 1
13 14 14 14 13 14 16 18 20 21 22 20 14 9 7 3 1 3 4 4 2 2 3 2 0 1 1 2 3 3 4 5 4 3 4 1 3 2 4 5 5 1 2 3 2 2 2 2 4 5 6 7 6 7 8 8 6 3 3 4 2 3 4 2 2 2 2 3 4 4 1 4 5 5 5 3 2 1 2 4 3 4 4 3 2 2 2
11 12 13 13 12 11 13 15 16 17 18 17 16 16 11 5 1 3 4 5 1 2 2 1 1 1 2 3 4 3 3 3 3 2 4 2 3 4 3 3 2 1 1 3 6 6 3 2 3 3 5 6 5 6 7 6 4 5 5 3 4 4 3 2 2 2 0 2 2 1 3 6 5 5 5 3 3 4 3 3 2 4 4 3 3 4 4
9 11 11 12 11 10 10 11 12 13 14 15 15 16 14 9 4 2 3 4 1 1 2 2 3 2 2 3 4 2 3 4 4 3 2 1 2 3 1 0 1 1 2 4 6 5 3 2 3 3 4 5 4 2 3 3 3 4 5 3 2 5 4 2 1 1 2 1 1 1 3 6 5 3 2 1 2 2 1 0 0 3 4 4 4 5 7
8 9 10 10 10 10 8 9 10 10 12 13 13 14 15 13 7 2 3 4 3 1 1 2 2 1 1 1 3 3 3 3 2 2 3 2 1 1 2 2 5 3 4 5 3 3 3 2 3 2 2 2 1 1 2 2 2 3 4 3 3 4 2 3 3 1 2 3 1 2 2 3 3 3 3 1 1 2 1 0 1 2 4 5 4 4 7
6 7 8 8 9 9 8 7 8 8 9 10 11 13 15 13 9 4 4 4 4 1 2 4 5 3 2 1 1 3 2 1 1 1 4 4 3 3 3 3 5 5 5 4 3 3 4 2 3 2 1 2 2 1 2 2 3 3 3 5 6 5 2 3 4 1 2 3 1 1 2 3 5 5 4 3 3 3 0 1 1 1 4 6 5 5 6
6 6 6 7 7 8 8 6 6 7 8 8 9 11 13 13 10 5 3 4 3 1 3 4 4 3 3 1 1 1 3 2 2 2 1 2 2 4 3 4 5 4 5 4 2 3 4 2 2 2 2 2 2 1 1 1 0 3 4 5 6 5 3 3 3 2 3 3 2 2 3 4 4 4 4 4 2 1 2 1 2 1 3 5 4 5 6
7 5 5 6 6 6 7 6 5 5 6 6 6 8 10 12 11 7 3 3 3 1 4 4 5 2 2 3 3 2 2 2 2 2 0 2 2 2 2 2 3 3 3 4 2 3 3 2 2 3 2 2 1 2 2 1 1 2 0 2 3 3 2 1 2 2 3 4 3 2 3 4 3 4 4 3 1 2 1 2 2 1 3 3 3 4 5
8 6 5 4 5 5 5 6 5 5 5 5 4 5 7 9 11 10 5 3 3 0 4 2 4 3 3 3 2 1 1 2 3 3 1 2 2 1 1 2 1 1 2 3 3 2 3 1 1 3 2 2 1 2 2 2 2 2 2 2 1 1 1 1 2 2 2 2 2 3 4 3 3 3 3 1 1 2 3 3 2 2 2 2 2 3 3
8 7 6 5 4 4 4 5 5 4 4 4 4 3 5 6 9 10 7 2 2 1 5 3 4 6 5 4 3 3 1 1 1 3 3 2 2 2 4 3 2 1 2 2 1 1 2 2 2 1 2 2 2 2 1 2 3 2 3 2 2 3 2 1 2 2 2 1 2 3 3 2 3 2 1 2 3 3 3 2 1 1 0 1 2 2 3
9 8 6 6 5 4 4 4 4 5 4 4 3 3 3 3 5 7 6 2 3 1 2 2 4 7 7 6 5 5 4 4 4 4 3 3 2 2 2 3 2 1 1 2 2 1 2 2 2 1 2 2 1 1 1 1 4 3 3 3 2 3 3 2 2 2 3 3 4 4 3 4 5 3 3 3 4 3 3 2 1 1 1 2 2 3 3
9 9 7 6 6 5 5 5 4 5 5 4 5 4 2 3 5 6 7 4 2 4 6 6 7 11 12 14 15 14 11 11 9 5 3 2 1 2 4 3 3 3 2 3 3 1 1 2 2 2 2 2 1 2 2 2 2 4 1 2 3 4 4 4 3 3 3 4 5 4 2 3 4 3 4 5 4 2 4 3 2 2 2 2 2 4 5
9 9 8 7 6 6 6 6 5 6 6 5 6 5 3 4 6 6 6 4 3 6 9 9 9 12 13 14 14 14 12 12 15 14 8 5 1 1 3 3 2 2 2 3 4 3 3 3 2 2 2 2 2 2 1 1 2 3 2 2 3 3 3 4 2 2 3 4 5 5 4 5 6 5 5 4 3 3 4 4 3 3 3 3 3 4 6
9 9 9 8 7 6 6 6 6 7 7 6 6 6 5 6 7 6 4 2 2 3 4 3 2 3 3 3 2 4 6 7 11 15 14 11 5 1 2 4 4 2 1 3 4 4 3 2 1 2 2 2 3 3 2 3 3 3 2 2 4 2 3 3 2 1 2 3 4 5 6 7 6 5 4 3 4 4 4 4 4 4 4 4 4 5 6
10 9 9 8 7 6 6 6 7 7 8 7 7 8 7 5 3 2 2 1 1 1 1 3 3 2 1 4 4 6 8 9 8 11 14 17 15 8 4 5 7 5 3 4 4 4 3 1 2 2 3 3 3 3 3 3 3 3 4 3 3 1 3 3 3 3 3 4 6 6 5 6 6 5 4 4 5 5 5 4 4 4 4 5 6 6 5
10 9 9 8 7 6 6 6 7 8 8 8 8 8 8 7 5 3 2 2 2 1 0 3 4 3 7 11 11 9 8 8 9 11 13 17 21 19 10 5 5 4 4 4 3 3 3 2 2 3 3 2 3 3 3 3 3 3 4 5 3 4 4 3 3 3 2 6 7 6 4 6 7 7 7 7 5 5 5 5 4 4 5 5 6 7 7
11 10 9 8 8 6 6 6 7 7 8 8 8 8 9 9 8 7 6 3 2 1 2 2 4 8 11 12 12 11 8 8 10 12 14 16 20 23 16 7 5 4 5 4 2 2 3 2 1 3 3 2 3 3 2 2 3 2 4 4 3 4 4 3 2 2 3 6 6 4 3 4 6 6 6 7 6 5 4 4 4 5 5 4 5 6 8
11 9 9 9 7 7 6 6 6 7 8 8 8 9 9 9 8 8 9 8 4 1 1 3 5 9 10 10 11 12 10 9 9 11 15 16 18 21 18 10 5 4 4 3 1 2 3 2 3 3 2 2 2 1 1 1 2 3 5 4 5 6 6 6 6 5 6 8 8 6 4 4 5 5 5 6 5 4 5 5 5 5 6 5 4 5 6
11 9 9 8 7 6 6 6 6 7 7 6 7 7 5 4 4 5 12 12 7 2 0 2 4 4 5 9 14 13 9 8 7 9 12 12 14 17 17 11 6 4 4 4 3 2 2 3 3 2 2 3 3 2 1 2 2 6 6 7 9 8 8 10 10 8 7 7 6 7 6 5 5 5 5 5 5 5 5 6 6 6 7 6 5 6 8
11 9 8 8 7 6 6 5 5 6 6 5 5 4 2 2 3 2 11 15 10 3 1 2 3 3 4 7 9 10 11 11 9 9 9 8 10 13 13 9 5 3 3 2 2 3 2 2 2 1 2 3 3 1 2 3 3 5 4 8 10 10 8 9 10 9 7 6 5 7 7 6 4 3 3 5 6 7 5 6 7 8 8 8 7 7 10
11 8 8 8 7 6 5 4 4 5 5 3 2 2 1 1 2 1 9 15 12 4 0 2 3 3 4 4 4 7 13 13 7 5 3 3 4 6 8 7 3 2 3 2 2 3 2 2 2 1 2 4 4 2 2 3 3 5 4 7 9 10 9 9 9 10 8 4 5 5 4 3 2 2 1 4 8 8 7 7 9 10 10 10 10 11 13
10 8 7 7 6 5 4 4 4 4 5 5 3 3 3 3 2 4 9 14 12 4 1 2 2 2 2 3 4 7 10 7 3 2 2 2 2 2 3 4 2 2 2 1 0 1 2 2 3 2 3 5 4 2 2 3 7 8 6 6 7 8 8 9 9 9 7 5 6 4 3 3 3 4 4 6 7 7 7 8 11 12 11 11 12 13 15
9 7 6 6 5 4 3 3 4 5 6 7 7 5 5 7 8 9 12 12 9 3 2 1 2 2 2 3 5 5 5 4 2 3 3 1 1 2 2 2 3 2 1 2 2 2 1 2 3 2 1 4 3 2 2 6 11 12 8 6 5 5 6 7 7 6 6 6 7 7 6 5 5 6 6 6 7 8 9 9 11 10 9 8 9 11 14
8 6 5 4 3 2 2 3 4 4 4 5 5 4 2 5 12 14 14 11 5 2 2 1 1 2 2 2 3 3 4 4 2 1 2 2 0 2 2 1 2 2 4 4 2 2 2 2 2 1 1 3 3 3 5 9 12 10 6 5 2 1 1 4 4 5 6 6 7 7 5 4 3 2 3 5 6 7 8 9 8 7 6 7 7 9 11
6 4 3 2 2 1 1 1 2 3 3 4 3 3 3 2 11 17 16 9 2 1 1 1 1 2 2 3 3 3 4 3 1 1 1 1 1 1 2 1 0 2 2 2 1 2 2 2 2 2 2 2 2 3 6 11 11 6 3 4 4 3 2 2 4 5 4 4 5 5 3 4 2 3 4 4 5 5 5 6 7 6 6 7 9 10 11
3 2 1 1 1 1 1 1 2 2 1 2 3 4 4 1 8 16 16 6 0 1 1 0 1 2 1 2 3 3 5 3 2 1 0 1 1 1 1 2 1 2 1 2 1 2 2 2 2 2 2 2 3 5 6 8 8 6 6 7 6 6 5 4 4 4 3 4 4 3 3 4 3 4 4 5 5 5 4 5 6 6 7 8 9 9 10
1 1 2 3 3 2 1 1 1 1 1 3 5 7 6 5 7 10 9 4 2 3 1 1 2 2 1 2 3 2 4 2 1 2 2 1 0 1 1 1 1 2 1 1 2 2 1 2 2 2 2 3 4 5 6 7 8 9 9 7 6 6 5 4 4 4 4 4 2 2 3 2 2 3 4 5 6 5 4 5 6 6 7 8 9 10 12
2 3 3 3 2 1 0 1 0 1 3 4 4 3 2 2 4 3 3 2 2 3 2 1 3 2 2 1 3 1 0 1 1 1 1 0 1 1 1 0 1 2 1 2 1 1 1 1 1 2 3 3 3 5 8 9 9 8 6 5 6 5 4 4 5 6 6 4 1 2 3 2 4 5 4 5 6 5 4 5 7 7 8 9 11 13 16
5 4 2 1 1 1 1 3 3 3 5 5 3 0 1 0 1 1 1 1 2 2 2 2 3 2 3 3 4 2 2 1 1 1 1 1 1 1 0 0 1 1 1 2 1 1 1 1 1 1 2 3 4 6 9 9 7 5 2 3 5 5 5 5 6 7 7 6 5 6 6 4 5 5 4 4 4 4 4 5 8 9 10 11 14 16 16
5 3 2 1 1 2 4 4 3 3 4 2 1 1 0 0 1 1 1 1 1 1 2 2 2 2 4 4 3 3 3 3 2 1 2 1 1 1 1 1 0 0 1 2 1 1 1 1 1 1 2 3 6 9 10 8 6 4 3 3 4 6 7 7 7 8 7 6 5 6 6 6 6 5 4 4 3 3 4 5 8 10 11 13 16 18 17
3 2 1 1 1 2 3 2 1 1 1 1 1 0 0 1 1 1 1 1 2 2 2 2 1 2 2 3 2 3 3 2 2 1 1 1 0 0 1 1 0 0 2 2 0 1 1 2 1 2 2 4 7 9 10 8 6 4 3 3 4 6 7 7 7 9 8 5 3 4 5 6 7 6 5 5 5 3 4 5 8 11 13 14 17 18 17
4 2 1 3 4 4 3 1 0 1 1 1 1 0 0 1 1 1 1 2 2 2 1 2 2 3 3 3 3 3 2 1 1 1 1 0 0 0 1 1 0 0 2 2 1 1 1 1 1 2 3 5 7 8 9 8 6 4 3 2 1 4 6 6 6 7 9 7 5 6 6 6 7 7 7 6 5 3 4 6 8 11 14 16 16 15 16
4 2 2 4 2 1 0 1 1 1 1 1 1 1 1 1 1 1 1 1 1 1 1 2 1 2 1 2 2 1 0 1 1 1 0 1 1 0 0 1 1 1 1 0 2 1 1 1 1 2 4 5 6 7 8 7 6 4 3 4 5 3 4 6 6 6 8 9 8 7 7 7 6 6 5 5 3 2 5 8 9 11 15 16 14 13 15
3 0 2 1 1 1 1 1 1 0 0 0 0 1 1 2 1 1 1 2 1 1 2 2 0 1 2 2 1 1 0 1 1 1 0 0 0 0 1 2 2 1 0 1 1 1 1 1 2 3 4 5 6 7 9 8 5 3 3 5 8 8 5 5 5 4 5 7 8 7 6 5 4 4 4 4 2 2 6 9 10 12 15 15 12 11 14
2 1 2 2 2 1 1 0 1 0 1 2 2 2 2 2 2 3 3 2 2 2 2 1 2 2 3 2 0 1 0 0 1 0 0 0 0 1 2 2 1 1 0 0 1 1 1 1 2 3 5 7 8 8 8 8 5 2 1 2 5 6 4 4 4 4 5 7 8 7 5 4 4 3 3 2 1 4 7 9 11 13 15 13 10 11 14
1 1 3 2 1 2 1 0 1 1 2 3 2 3 3 3 4 4 3 2 2 3 4 2 2 3 3 2 0 0 0 1 1 1 0 2 0 2 2 0 1 1 0 1 2 2 1 2 3 5 6 7 8 8 8 7 5 2 2 3 4 4 4 5 5 4 6 8 9 7 5 5 5 3 1 3 6 7 8 10 11 13 13 11 10 11 14
0 1 3 2 1 1 0 1 3 3 2 2 3 3 3 3 3 3 3 2 3 3 4 2 1 2 2 1 0 1 0 1 0 1 1 1 1 2 1 2 1 1 1 1 2 2 2 3 4 5 6 7 7 8 8 7 6 5 4 5 5 5 5 5 5 6 8 9 7 6 6 6 4 3 4 7 9 8 9 10 11 11 11 10 10 12 15
1 1 1 1 1 1 1 2 2 1 1 1 2 3 2 1 2 3 3 3 3 3 2 1 0 1 1 1 0 1 1 0 0 1 1 1 0 1 2 2 1 2 1 2 2 3 3 4 5 6 7 6 6 7 7 7 7 8 7 6 8 8 5 3 4 7 9 10 9 8 8 7 5 4 7 9 9 9 10 10 11 11 10 10 11 13 15
2 1 1 1 1 2 3 2 1 1 1 2 3 3 2 2 3 4 3 2 2 2 2 2 1 1 1 1 1 1 1 1 0 1 1 2 2 2 2 2 3 2 1 1 2 4 5 5 5 6 7 7 7 7 7 7 8 9 8 8 10 8 5 4 7 10 10 11 11 10 9 8 6 6 9 11 9 9 10 10 10 10 10 10 11 12 13
1 1 1 1 1 2 2 1 1 2 3 3 3 3 2 2 3 4 3 3 1 1 1 1 1 1 1 1 2 2 2 1 1 1 2 2 2 2 3 3 4 3 3 3 5 5 5 5 5 6 8 8 8 8 8 7 8 9 10 9 8 8 7 6 8 9 9 12 13 11 10 9 7 8 11 12 10 10 11 10 9 9 9 9 10 12 13
1 0 1 3 3 3 2 1 0 3 4 4 3 3 2 2 2 4 3 2 2 3 2 0 0 2 3 2 1 1 1 0 2 2 1 1 1 1 3 4 5 5 5 6 6 5 5 6 6 7 8 8 8 8 9 9 10 11 11 7 6 8 7 6 6 7 9 12 13 13 11 8 7 9 12 13 12 12 11 9 7 7 7 8 10 12 14
1 1 2 3 3 3 3 2 1 3 4 4 4 3 2 2 3 3 2 3 3 2 0 1 1 3 2 0 1 1 1 2 2 2 2 1 0 1 3 5 6 6 6 7 7 6 6 7 7 7 8 9 9 10 10 10 11 12 9 6 7 8 8 7 7 8 10 12 13 12 10 7 8 11 14 13 11 10 8 6 5 6 6 8 10 12 13
Wind_Direction
1 0 2 4 4 4 4 3 359 355 357 359 2 10 38 68 131 356 5 23 92 75 47 342 40 57 351 19 33 24 45 25 358 4 19 34 50 36 30 34 45 45 42 51 62 67 62 29 40 84 32 29 341 319 332 340 349 57 46 316 312 34 72 56 15 315 303 287 307 357 29 65 58 34 21 16 8 3 163 165 164 62 28 356 57 101 183
2 2 3 5 4 5 5 5 3 358 355 354 359 27 111 97 210 348 13 35 87 90 82 79 66 50 16 37 31 21 40 37 22 27 22 20 53 56 27 14 45 47 33 61 73 70 83 52 26 65 70 355 332 342 355 5 22 52 26 311 305 12 55 77 59 14 349 340 343 343 354 32 49 5 0 4 2 5 22 74 58 60 51 137 113 128 210
3 3 5 6 5 6 6 6 6 2 356 356 9 80 140 50 129 285 5 31 61 95 156 123 97 72 48 48 29 15 34 40 34 42 36 28 64 84 40 15 53 42 33 57 45 41 86 91 1 41 36 327 324 354 5 10 23 32 16 7 63 83 62 101 109 120 166 239 267 270 309 355 27 7 358 360 8 15 28 54 46 53 288 169 134 164 268
3 5 8 8 6 8 8 8 9 4 359 4 30 60 123 69 45 315 346 17 42 61 93 97 95 94 79 57 20 23 42 352 2 49 52 24 48 74 47 16 56 39 43 61 36 26 52 71 66 60 9 325 311 346 4 11 15 20 18 14 55 107 55 67 105 124 161 182 210 253 312 351 343 356 4 0 357 6 56 79 56 162 10 327 215 171 341
3 6 10 10 8 10 10 10 11 8 3 7 41 41 53 101 60 10 334 355 16 26 21 38 72 98 109 96 10 8 26 347 356 39 58 21 45 66 28 20 55 59 66 83 46 17 33 44 56 60 346 303 297 335 15 15 7 15 17 5 43 97 45 35 73 78 139 180 232 314 358 1 311 339 356 346 340 358 57 112 212 158 79 306 246 171 21
4 7 12 12 10 13 14 13 14 17 12 14 68 48 27 86 108 194 155 53 30 31 5 18 52 54 63 89 58 15 28 37 21 14 24 22 39 73 36 18 44 86 107 113 93 27 29 26 19 23 5 344 336 351 13 7 4 16 14 358 54 101 68 38 78 44 338 320 331 349 16 324 296 312 314 313 326 341 326 234 221 157 133 241 251 281 29
7 9 13 14 12 15 17 17 20 27 27 39 71 70 12 75 92 305 40 93 146 178 336 18 56 47 32 48 51 37 37 33 348 331 38 19 6 71 90 12 14 54 88 104 105 113 99 49 334 235 34 14 16 10 359 352 7 25 23 2 50 103 65 27 95 84 358 351 350 8 22 354 315 291 281 281 291 288 266 253 233 196 202 237 265 300 27
9 11 15 16 15 17 20 22 25 31 42 58 65 52 4 80 115 296 44 60 59 13 6 37 60 36 22 42 35 37 49 20 335 358 75 73 338 48 105 136 23 51 69 88 106 163 152 137 181 176 120 22 357 176 219 292 357 16 33 356 13 76 52 357 71 71 356 343 358 358 350 313 278 281 279 277 291 298 277 266 253 228 244 262 272 277 267
10 12 17 18 19 21 23 25 29 32 45 63 64 34 25 91 136 141 97 50 357 4 12 45 64 32 16 39 13 8 9 329 309 21 56 111 123 107 143 154 116 49 58 73 110 191 168 159 186 179 154 169 197 204 189 177 19 9 29 343 3 71 64 356 58 58 305 303 352 320 303 300 276 278 281 276 279 288 270 284 349 337 280 280 240 233 255
11 13 18 20 23 26 26 28 31 34 45 63 71 13 13 77 107 82 100 75 358 9 13 30 68 67 326 335 11 14 327 305 99 78 21 28 44 142 157 143 94 54 55 48 341 213 190 183 192 179 155 159 158 118 109 133 123 127 131 29 1 97 98 58 79 70 283 286 313 299 323 7 323 258 274 277 273 283 285 331 27 5 296 179 177 207 254
11 14 18 22 26 29 30 31 33 36 44 55 63 24 348 34 122 64 79 72 357 7 54 39 66 101 341 18 57 61 47 35 56 109 94 360 10 66 127 112 95 93 75 309 281 208 185 166 128 101 81 77 95 99 89 77 66 121 138 99 2 95 101 127 128 106 269 288 318 343 15 4 265 246 264 265 268 288 294 58 35 355 10 122 147 175 333
11 14 17 22 30 34 34 34 36 41 46 48 53 43 6 347 113 69 86 100 342 355 68 58 187 140 21 64 77 60 61 49 35 119 132 19 347 38 75 85 90 72 289 317 11 76 121 72 41 39 42 54 75 81 76 68 46 24 92 116 129 99 97 130 128 119 239 305 7 24 327 250 255 287 298 277 286 17 99 102 61 9 16 65 73 9 351
10 13 17 22 31 38 39 38 38 43 48 47 49 44 22 359 65 81 97 110 350 326 87 49 318 60 56 77 87 60 36 25 356 53 97 75 10 23 34 80 100 273 287 46 47 58 71 19 7 11 6 14 36 51 55 58 46 30 40 78 124 127 129 142 127 133 238 14 67 146 256 270 286 314 322 342 15 27 68 97 64 19 11 11 358 338 334
6 12 17 21 29 39 43 42 41 43 47 47 48 46 33 21 41 97 107 103 111 252 117 43 344 14 50 76 88 55 3 2 4 23 57 60 35 24 356 35 348 300 140 90 49 53 84 46 21 11 355 5 17 17 20 24 47 61 37 13 104 129 134 125 136 174 129 105 213 236 320 319 318 328 341 32 33 8 39 129 301 30 19 357 349 342 334
359 9 15 19 27 37 42 46 46 45 46 46 46 47 40 27 27 80 127 113 109 3 74 146 208 207 125 112 101 84 28 7 17 7 343 330 345 314 284 328 355 20 97 92 53 58 79 70 61 25 349 17 27 295 324 347 349 61 55 32 74 104 135 148 151 181 117 110 286 329 3 311 269 243 254 318 249 246 231 207 271 38 15 351 352 354 340
346 2 8 15 24 34 40 47 48 42 41 44 46 47 41 28 26 55 90 99 106 100 239 196 188 167 136 122 83 103 115 130 125 13 340 333 322 303 290 325 359 38 75 70 65 81 68 73 118 133 224 190 179 263 326 3 323 335 24 45 59 54 46 112 117 117 113 127 181 218 199 237 238 231 251 294 278 251 51 48 288 348 358 344 351 1 354
330 345 357 6 17 29 37 39 41 38 33 37 45 45 39 28 19 24 53 84 99 207 237 181 138 101 103 104 3 124 142 144 120 105 334 295 297 302 309 339 5 42 78 71 47 66 76 88 117 128 237 219 152 184 270 64 334 305 346 20 37 35 25 69 111 173 179 169 201 217 218 244 241 225 248 269 235 161 62 4 266 297 332 331 355 7 359
318 320 334 350 0 18 31 27 25 36 33 30 38 42 38 29 18 14 39 98 90 287 245 169 130 140 178 168 175 179 159 129 106 110 296 305 287 272 290 352 6 14 67 89 76 69 90 125 141 137 215 264 107 154 224 147 169 232 164 63 39 20 19 85 138 185 205 205 224 260 254 243 224 225 255 270 174 127 148 229 222 261 302 317 12 11 349
313 303 306 324 340 358 16 16 12 26 31 24 26 41 42 29 21 21 30 87 103 253 254 184 143 185 184 131 120 161 153 114 111 113 73 322 272 250 25 36 21 345 36 80 98 100 106 162 200 136 148 274 277 156 186 191 203 200 134 115 117 81 53 129 139 152 199 196 207 279 275 238 188 215 255 249 148 190 214 215 213 229 260 324 14 354 337
312 299 289 294 312 328 348 358 360 4 14 19 19 41 46 25 18 25 29 64 116 279 271 228 192 209 198 153 152 167 151 80 106 129 147 216 244 56 40 357 307 2 37 73 99 126 140 177 226 152 155 219 209 146 194 261 257 198 153 171 203 165 145 205 195 167 143 142 196 252 264 218 165 155 177 175 188 201 196 194 207 202 262 351 337 310 325
313 300 286 281 286 295 312 329 339 343 353 3 350 353 18 358 355 6 6 39 115 83 287 228 210 223 217 209 209 195 179 182 176 152 159 212 227 102 113 226 219 134 140 157 145 181 179 167 192 178 160 190 182 141 169 283 307 282 174 162 209 188 164 183 221 190 144 157 212 230 225 199 182 161 161 198 212 182 146 152 192 205 275 291 282 285 290
315 303 292 280 273 275 287 296 308 320 329 340 333 323 321 316 320 333 331 311 221 236 262 267 263 257 251 253 259 262 256 245 239 226 163 159 238 162 148 176 193 188 177 133 127 192 192 149 168 173 156 170 187 188 176 160 304 289 233 155 212 222 188 166 190 202 180 191 213 221 222 215 204 193 198 214 229 197 153 158 182 202 226 243 268 288 287
318 307 297 286 275 271 273 279 288 297 303 316 321 315 309 311 316 326 325 308 271 264 265 270 278 275 268 263 259 259 258 252 250 245 219 180 196 224 163 167 198 207 169 142 152 169 169 167 166 152 170 189 160 141 186 208 226 241 220 203 238 235 165 139 163 244 261 250 230 214 229 246 239 229 223 213 216 209 174 168 193 210 214 228 251 273 281
320 310 299 290 284 277 272 273 279 282 287 297 303 304 311 314 317 328 335 343 6 328 291 296 309 272 270 288 261 251 259 251 250 250 235 208 190 253 258 207 189 176 234 213 170 123 125 165 129 118 213 213 156 145 194 233 228 200 177 251 284 267 160 153 169 214 259 271 249 217 224 243 241 232 239 235 221 209 183 178 203 209 201 219 241 257 272
320 313 302 290 285 283 279 276 278 279 282 286 287 293 301 302 303 342 19 34 48 63 350 322 297 240 339 341 302 281 288 278 257 248 235 214 202 206 215 188 179 179 196 193 143 106 110 130 109 145 221 216 182 184 203 220 221 189 181 225 265 202 161 172 186 185 196 248 258 243 241 256 248 228 237 247 229 211 202 200 206 206 209 226 236 241 256
321 312 305 293 282 281 282 281 283 284 285 285 284 285 286 276 249 210 147 100 96 106 356 290 271 296 343 330 305 296 301 280 248 238 236 226 220 220 212 164 148 147 122 112 116 128 130 114 120 169 207 213 196 191 192 196 181 163 203 230 203 140 150 176 184 195 264 283 271 258 268 280 266 245 241 239 216 199 207 211 205 211 223 230 233 235 238
319 311 305 297 284 278 282 285 288 291 293 295 294 289 284 278 259 223 194 159 115 46 316 267 271 307 321 314 305 311 314 290 263 248 243 238 229 224 215 181 131 119 106 87 59 103 111 107 181 188 196 212 193 181 198 188 139 154 232 236 174 155 179 182 151 174 253 257 239 205 200 261 263 247 234 224 203 191 210 221 218 225 231 228 235 244 244
320 310 304 298 287 278 281 287 291 295 299 305 309 304 295 291 276 230 204 194 177 158 219 234 280 307 310 305 311 320 319 305 283 256 245 240 227 215 207 189 155 139 137 132 129 137 149 181 194 177 184 196 177 176 207 108 117 238 240 206 177 189 190 176 177 206 232 234 218 182 176 228 246 234 220 213 198 193 218 238 243 245 245 239 244 265 270
317 307 300 298 290 277 277 285 293 301 311 324 327 321 314 317 304 222 199 196 191 162 159 276 289 302 304 303 307 311 315 315 298 266 249 234 212 201 196 188 176 166 148 130 138 163 182 196 185 177 197 184 161 171 187 144 208 246 226 182 187 203 194 185 195 213 238 242 213 177 181 218 226 204 200 208 202 195 216 242 246 248 259 261 259 268 274
315 304 297 297 293 281 276 281 289 305 325 342 346 348 7 13 349 227 190 187 185 169 72 309 297 296 297 296 296 304 316 321 308 278 252 217 196 196 195 187 174 156 138 126 150 162 175 218 216 226 222 183 157 181 195 177 227 255 217 181 194 208 208 205 206 210 226 232 183 168 194 219 208 174 188 219 215 205 218 242 241 242 255 261 260 269 276
312 301 292 292 289 281 275 277 288 306 319 331 8 53 72 11 341 213 179 176 173 163 273 258 267 298 301 280 264 297 312 316 310 287 255 173 157 184 187 177 163 156 155 148 149 154 169 202 202 200 192 181 187 218 186 174 250 265 214 186 202 211 212 219 220 218 221 200 123 134 196 214 153 119 267 245 227 218 222 239 243 247 258 266 270 277 282
308 299 291 288 285 278 274 280 294 301 297 283 263 242 235 222 181 145 159 167 168 167 282 270 281 322 315 288 281 299 311 316 340 29 37 82 83 87 139 147 121 88 76 52 101 186 187 179 185 201 179 170 186 226 181 194 242 248 215 190 206 213 212 221 228 227 219 174 133 145 244 241 194 202 233 246 242 231 224 237 251 257 266 277 281 282 286
304 295 290 286 281 278 281 290 295 294 291 289 289 285 259 223 190 153 143 154 169 196 239 251 297 301 278 292 306 321 337 342 5 40 28 2 90 83 95 106 90 88 142 210 217 226 202 159 182 220 181 152 181 242 239 227 241 248 238 218 214 214 220 230 232 224 212 185 173 195 223 217 195 199 218 240 258 253 243 252 266 271 276 280 282 286 291
300 295 292 287 288 291 294 304 312 311 301 295 311 3 24 212 195 171 154 154 172 229 230 195 274 281 285 315 323 351 20 13 335 349 1 337 61 106 102 61 73 152 201 200 196 226 227 181 182 212 162 148 177 227 250 249 252 256 249 226 197 133 253 258 250 231 215 197 195 208 207 168 143 174 218 239 261 265 262 266 273 278 284 282 281 290 297
299 296 289 287 305 320 317 316 319 322 313 298 309 17 30 231 200 181 169 159 144 249 231 177 226 268 319 330 297 319 15 16 300 274 294 287 311 97 118 107 99 221 205 160 160 224 219 173 164 190 174 163 187 220 247 259 266 266 230 202 183 143 146 228 254 249 226 190 193 210 179 124 141 251 260 265 273 277 280 281 277 277 284 285 287 295 299
289 283 298 81 73 47 21 235 231 252 295 341 32 55 54 122 180 179 178 171 47 277 240 356 244 227 286 298 277 330 8 355 294 317 340 238 317 18 95 121 205 237 181 124 197 234 198 142 167 206 189 186 218 238 254 269 274 263 234 217 197 173 173 199 229 241 218 177 174 175 143 138 194 245 264 276 280 282 285 286 285 285 284 286 293 300 300
244 158 105 96 87 57 341 238 203 147 141 126 97 85 84 99 131 161 180 202 273 253 229 324 265 219 178 244 263 346 6 331 304 344 334 245 193 354 31 107 218 243 210 187 217 219 169 161 183 216 217 220 248 274 287 288 276 260 246 224 190 173 186 205 206 194 173 154 142 127 124 148 232 251 256 265 271 275 277 277 280 282 283 290 299 301 298
159 136 115 107 104 84 271 264 286 112 156 167 141 94 78 105 112 135 175 205 239 227 187 226 252 214 140 224 245 223 271 285 345 6 311 281 43 338 318 189 246 266 283 256 226 109 99 189 210 230 248 261 285 295 297 293 280 263 241 195 172 177 196 198 181 167 155 145 175 202 172 196 255 254 244 249 257 257 258 269 279 283 285 291 297 300 300
148 139 132 139 196 193 109 80 80 121 155 171 177 194 318 89 111 147 186 187 221 227 191 217 241 194 170 222 252 228 197 224 335 303 245 270 346 277 229 325 296 308 306 274 262 82 76 247 235 239 270 298 313 307 307 306 296 272 223 173 177 190 194 189 184 180 172 170 187 191 181 188 221 230 222 227 248 264 268 274 284 291 293 297 302 306 308
154 160 183 188 186 160 134 111 101 126 143 153 195 224 237 48 132 175 182 201 234 222 188 204 238 209 183 209 253 254 198 173 167 217 227 244 282 232 198 228 246 174 238 255 245 98 169 245 230 224 263 306 320 319 320 316 298 273 245 221 215 203 191 190 191 186 177 174 181 183 182 188 195 200 201 200 215 266 283 283 295 304 305 309 313 315 315
160 159 176 238 264 223 202 208 237 196 121 72 4 187 159 292 251 186 166 218 248 246 205 174 265 284 222 188 206 244 228 185 159 176 193 223 313 193 201 226 337 77 248 256 271 101 203 233 220 226 261 307 319 320 323 321 309 298 282 250 222 194 182 183 184 178 170 167 184 196 199 203 204 206 211 208 209 241 272 286 306 315 317 318 318 319 321
168 164 270 301 288 262 245 250 301 85 93 72 357 334 312 270 259 240 201 202 218 243 216 179 199 240 224 180 178 218 230 174 107 102 137 229 281 187 214 250 354 210 238 255 13 49 270 264 240 248 295 319 322 324 328 325 317 316 323 328 238 190 182 172 170 181 184 185 195 204 207 211 214 218 222 223 225 250 285 304 317 323 325 325 325 329 336
179 203 298 310 305 291 338 31 49 57 62 69 64 4 312 290 274 266 265 256 241 248 245 235 252 284 261 199 183 209 88 96 103 110 153 232 223 172 253 270 237 205 222 56 67 95 238 238 228 262 307 323 325 329 329 319 303 303 346 21 17 323 229 189 168 181 195 196 203 214 217 218 225 232 232 228 231 278 319 328 331 332 331 331 333 344 352
159 87 329 325 351 46 44 21 11 89 89 295 184 174 260 293 295 251 262 276 267 238 238 228 159 340 296 255 182 121 75 83 93 85 27 271 110 153 222 234 232 232 325 46 67 215 224 215 234 278 319 330 329 333 334 324 310 316 6 17 5 342 296 225 183 167 177 194 207 216 217 217 224 233 230 224 230 328 342 343 347 347 342 340 345 358 2
129 35 35 28 352 349 62 6 345 89 188 231 213 175 190 249 248 227 229 226 208 241 273 237 167 207 263 272 165 147 222 27 53 10 230 89 47 235 224 227 243 242 200 305 302 274 248 284 313 326 336 335 331 332 333 325 315 336 44 345 328 326 305 250 212 172 167 193 207 206 196 193 204 225 238 229 78 39 19 8 4 358 352 351 357 6 8
138 111 92 84 316 286 170 157 308 248 200 208 195 178 199 223 223 224 230 210 207 258 282 272 204 224 256 272 280 169 98 82 69 277 106 92 110 252 236 229 358 352 305 295 282 243 241 311 336 335 330 328 326 325 325 322 317 303 179 215 262 288 288 269 247 209 194 200 201 191 179 182 194 214 202 96 77 54 34 26 21 13 7 7 11 11 12
144 99 90 101 275 301 354 205 223 215 197 192 193 202 222 241 252 258 248 220 223 258 276 272 237 246 258 258 232 282 354 90 152 281 47 98 220 272 358 42 3 277 247 260 265 264 284 311 323 321 317 321 323 317 315 318 312 290 252 229 236 247 253 257 254 228 208 196 182 167 164 169 177 175 128 103 83 58 41 38 36 29 24 23 22 20 18
163 107 96 157 209 228 220 224 227 208 169 199 220 221 222 249 283 281 264 236 231 248 259 265 313 320 307 308 230 239 280 27 15 281 318 94 127 345 14 11 276 239 193 208 254 286 296 301 309 311 309 312 313 309 308 312 307 294 274 249 242 241 236 240 252 236 209 182 161 153 153 153 157 151 128 109 88 66 56 51 45 41 39 35 32 31 29
116 90 115 170 202 221 222 228 288 321 257 260 274 273 239 223 252 262 251 227 224 226 211 177 123 101 288 305 36 68 307 327 354 306 359 46 43 348 328 309 293 284 205 207 275 292 295 297 303 303 301 303 305 303 301 301 300 297 286 263 247 230 193 185 233 235 205 168 153 149 145 147 155 146 126 113 97 78 69 62 54 51 47 41 40 39 34
67 70 165 192 235 253 244 242 359 312 293 297 298 280 241 222 263 269 241 200 187 52 74 95 85 64 318 358 39 17 297 267 95 50 27 39 33 331 310 303 299 294 290 293 298 300 303 304 301 296 296 300 302 300 298 296 297 300 296 274 236 196 165 178 220 222 184 154 147 143 140 148 161 151 133 124 112 94 81 70 63 60 53 43 40 37 31
34 356 226 212 214 225 219 147 10 288 285 282 268 248 206 183 243 257 227 162 77 39 33 220 164 43 39 33 20 338 290 325 66 42 2 346 17 321 299 293 291 294 299 302 301 301 304 304 299 295 297 297 296 295 294 292 293 294 288 261 202 170 162 177 194 183 158 145 140 137 137 148 157 148 139 132 117 99 87 78 71 68 58 44 39 39 39
148 254 262 247 225 214 204 181 208 249 259 259 249 226 186 193 231 237 183 107 77 47 27 178 105 67 53 344 261 331 10 36 38 15 321 287 263 261 275 285 294 302 307 306 303 301 299 293 287 287 290 290 290 290 289 291 293 290 272 216 162 150 155 161 158 152 146 139 133 132 137 144 147 147 144 135 117 103 100 96 85 78 69 57 53 53 53